Pagrindinis puslapis
METAR-TAF:

METAR-TAF

Oro uostai :

Perryton Ochiltree County Airport

Perryton, Teksasas, Jungtinės Amerikos Valstijos

platuma: 36-24N, ilguma: 100-44W, Aukštis: 890 m

Dabartinis oras

Ataskaita buvo paskelbta 28 minutes, ne 11:35 UTC
Vėjas 6 kt iš Vakarų/Pietvakarių
Temperatūra 2°C
Drėgmė 60%
Slėgis 1015 hPa
Matomumas: 16.1 km
Giedras dangus

METAR: KPYX 301135Z AUTO 25006KT 10SM CLR 02/M05 A2997 RMK AO2 T00191051

Laikas: 06:03 (12:03 UTC)


TAF: trūkstamas

Orai ataskaitas ir orų prognozės (METAR, TAF).

turimą stotys yra geltonos ir raudonos taškus žemėlapyje.

Perkelti pele per norėdami pamatyti stoties vardą.

Tada spustelėkite, norėdami matyti oro stebėjimo ir prognozės.

Norėdami pakeisti žemėlapį: spustelėkite ant žalios mygtukų su juodo kryžiaus žemyn,; žalią mygtuką su brūkšneliu, jei norite nutolinti; arba žalių rodyklių gretimoms žemėlapius.


METAR-TAF: